DW2817 Weather Reports


time (UTC)temp
C
wind
direction
speed
KPH
gust
KPH
rain 1hr
cm
rain 24hr
cm
rain mn
cm
humidity
%
barometer
mb
20260506051125 5 155 0.0 3.2 0.00 0.10 0.08 78 994.6
20260506050122 5 155 1.6 3.2 0.00 0.10 0.08 78 994.7
20260506045120 5 155 0.0 3.2 0.00 0.10 0.08 77 994.6
20260506044118 5 155 1.6 3.2 0.00 0.10 0.08 78 994.8
20260506043113 4 155 0.0 3.2 0.00 0.10 0.08 78 994.7
20260506042120 5 155 0.0 3.2 0.03 0.10 0.08 78 994.7
20260506041104 5 155 0.0 3.2 0.03 0.10 0.08 78 994.9
20260506040104 5 155 0.0 1.6 0.03 0.10 0.08 77 995.0
20260506035103 5 155 0.0 1.6 0.03 0.10 0.08 77 995.1
20260506034122 4 155 1.6 4.8 0.03 0.10 0.08 77 995.4
20260506033118 4 155 1.6 4.8 0.03 0.10 0.08 78 995.4
20260506032125 4 155 0.0 4.8 0.00 0.08 0.05 78 995.5
20260506031127 4 155 1.6 4.8 0.00 0.08 0.05 78 995.5
20260506030116 4 142 0.0 4.8 0.00 0.08 0.05 78 995.6
20260506025111 4 142 0.0 4.8 0.00 0.08 0.05 79 995.7
20260506023105 5 142 1.6 4.8 0.00 0.08 0.05 79 995.9
20260506022127 5 235 0.0 4.8 0.00 0.08 0.05 79 995.8
20260506021131 5 226 1.6 4.8 0.00 0.08 0.05 79 995.9
20260506020106 5 226 0.0 3.2 0.00 0.08 0.05 79 995.8
20260506015100 5 206 0.0 3.2 0.00 0.08 0.05 79 995.9
20260506014100 5 206 0.0 3.2 0.00 0.08 0.05 79 996.1
20260506013056 5 206 1.6 6.4 0.03 0.08 0.05 78 996.2
20260506012116 5 211 4.8 6.4 0.03 0.08 0.05 78 996.5
20260506011046 5 235 1.6 4.8 0.03 0.08 0.05 78 996.6
20260506005954 5 221 1.6 3.2 0.05 0.08 0.05 79 996.9
20260506004950 5 224 0.0 1.6 0.05 0.08 0.05 79 996.9
20260506003949 5 224 0.0 3.2 0.05 0.08 0.05 79 997.0
20260506002944 5 224 0.0 3.2 0.03 0.05 0.05 78 997.0
20260506001941 5 180 0.0 3.2 0.03 0.05 0.05 79 997.2
20260506000936 5 180 0.0 3.2 0.03 0.05 0.05 79 997.1
20260505235934 5 180 0.0 1.6 0.00 0.05 0.03 79 997.2
20260505234926 5 180 0.0 1.6 0.00 0.05 0.03 79 997.4
20260505233925 5 180 0.0 3.2 0.00 0.05 0.03 79 997.7
20260505232922 5 180 0.0 3.2 0.03 0.05 0.03 79 997.7
20260505231932 5 180 0.0 1.6 0.03 0.05 0.03 79 997.7
20260505230926 5 180 0.0 3.2 0.03 0.05 0.03 80 997.7
20260505225928 5 180 0.0 3.2 0.03 0.05 0.03 80 997.5
20260505224921 5 180 1.6 6.4 0.03 0.05 0.03 79 997.8
20260505222926 5 284 1.6 4.8 0.00 0.03 0.00 80 997.9
20260505221911 5 172 1.6 4.8 0.00 0.03 0.00 80 997.9
20260505220911 6 172 0.0 3.2 0.00 0.03 0.00 80 997.9
20260505214848 6 172 3.2 8.0 0.03 0.03 0.03 80 997.9
20260505213847 6 220 3.2 8.0 0.03 0.03 0.03 80 998.1
20260505212853 6 172 3.2 3.2 0.03 0.03 0.03 80 998.1
20260505211851 6 71 1.6 6.4 0.03 0.03 0.03 80 998.2
20260505205843 7 155 3.2 6.4 0.03 0.03 0.03 79 998.5
20260505204848 7 152 1.6 4.8 0.00 0.00 0.00 78 998.4
20260505203846 7 152 1.6 4.8 0.00 0.00 0.00 77 998.1
20260505202826 7 152 0.0 3.2 0.00 0.00 0.00 76 998.0
20260505195822 7 152 0.0 3.2 0.00 0.00 0.00 75 997.9
20260505194809 7 152 0.0 6.4 0.00 0.00 0.00 75 997.9
20260505193821 8 152 1.6 6.4 0.00 0.00 0.00 75 997.8
20260505192838 8 20 1.6 6.4 0.00 0.00 0.00 74 997.7
20260505190756 8 145 1.6 4.8 0.00 0.00 0.00 73 997.7
20260505185754 8 163 3.2 8.0 0.00 0.00 0.00 71 997.7
20260505184751 8 257 1.6 8.0 0.00 0.00 0.00 69 997.5
20260505183748 8 172 3.2 6.4 0.00 0.00 0.00 69 997.3
20260505182744 9 205 3.2 8.0 0.00 0.00 0.00 68 997.3
20260505181737 9 170 3.2 8.0 0.00 0.00 0.00 68 997.2
20260505180736 9 191 3.2 9.7 0.00 0.00 0.00 67 997.2
20260505175730 10 255 4.8 9.7 0.00 0.00 0.00 66 997.2
20260505174729 10 174 4.8 11.3 0.00 0.00 0.00 65 997.2
20260505171721 10 236 6.4 16.1 0.00 0.00 0.00 64 997.2
20260505170722 10 201 6.4 16.1 0.00 0.00 0.00 64 997.2
20260505165719 10 212 6.4 12.9 0.00 0.00 0.00 63 997.2
20260505162735 11 276 4.8 14.5 0.00 0.00 0.00 62 997.2
20260505161733 11 155 6.4 14.5 0.00 0.00 0.00 62 997.2
20260505160730 11 122 3.2 9.7 0.00 0.00 0.00 60 997.1
20260505152657 12 344 3.2 9.7 0.00 0.00 0.00 60 996.7
20260505151658 11 36 1.6 8.0 0.00 0.00 0.00 62 996.7
20260505150704 11 215 3.2 9.7 0.00 0.00 0.00 60 996.7
20260505140618 11 169 6.4 14.5 0.00 0.00 0.00 61 997.0
20260505124545 13 179 12.9 25.7 0.00 0.00 0.00 60 997.7
20260505123544 13 174 11.3 30.6 0.00 0.00 0.00 57 997.5
20260505122544 12 264 16.1 30.6 0.00 0.00 0.00 58 997.5
20260505121544 12 247 14.5 29.0 0.00 0.00 0.00 57 997.7
20260505120558 11 138 9.7 20.9 0.00 0.00 0.00 59 997.7
20260505115545 12 169 6.4 20.9 0.00 0.00 0.00 57 997.8
20260505114541 12 180 3.2 11.3 0.00 0.00 0.00 62 997.8
20260505113536 11 105 4.8 11.3 0.00 0.00 0.00 64 997.7
20260505112533 11 124 6.4 16.1 0.00 0.00 0.00 62 997.8
20260505111513 11 157 6.4 16.1 0.00 0.00 0.00 61 997.9
20260505101504 10 274 9.7 22.5 0.00 0.00 0.00 63 998.0
20260505100454 10 292 8.0 20.9 0.00 0.00 0.00 66 998.1
20260505095453 10 234 4.8 20.9 0.00 0.00 0.00 64 998.0
20260505094508 10 149 1.6 8.0 0.00 0.00 0.00 67 997.9
20260505093447 9 160 4.8 8.0 0.00 0.00 0.00 68 997.9
20260505091429 10 171 3.2 16.1 0.00 0.00 0.00 70 998.0
20260505084415 10 234 6.4 14.5 0.00 0.00 0.00 70 998.0
20260505083413 10 176 6.4 12.9 0.00 0.00 0.00 68 998.0
20260505082413 10 230 6.4 12.9 0.00 0.00 0.00 69 997.9
20260505075409 9 163 6.4 12.9 0.00 0.00 0.00 69 997.8
20260505074358 9 179 8.0 12.9 0.00 0.00 0.00 70 998.0
20260505073357 9 171 4.8 9.7 0.00 0.00 0.00 70 998.0
20260505072354 9 178 6.4 11.3 0.00 0.00 0.00 72 998.1
20260505070353 9 175 3.2 8.0 0.00 0.00 0.00 72 998.4
20260505065358 9 245 3.2 8.0 0.00 0.00 0.00 70 998.5
20260505064352 8 154 1.6 4.8 0.00 0.00 0.00 72 998.4
20260505063351 8 110 0.0 3.2 0.00 0.00 0.00 74 998.4
20260505062405 8 110 1.6 8.0 0.00 0.00 0.00 71 998.5
20260505061404 8 110 3.2 8.0 0.00 0.00 0.00 70 998.4
20260505060404 8 95 0.0 1.6 0.00 0.00 0.00 69 998.4
20260505055403 8 95 1.6 6.4 0.00 0.00 0.00 71 998.5